sat.trackr.live / text

‹ back to catalog

IRIDIUM 144

NORAD 43249 · 2018-030A

PAYLOAD ACTIVE UNKNOWN

§ Identity

Operator
Country
US
Launch date
2018-03-30
Launch site
AFWTR
Launch vehicle
Mass (kg)
RCS (m²)

Purposes: comms

External: N2YO · Heavens-Above · Gunter

§ Orbital elements

Epoch: 2026-09-19T23:25:47.339040Z

Period
100.40 min
Inclination
86.3913°
Eccentricity
0.0002057
Mean motion
14.34217573 rev/d
Perigee alt
776.2 km
Apogee alt
779.1 km
Semi-major
7,155.8 km
B*
-6.6280e-6
RAAN
250.7473°
Arg perigee
88.0829°
Mean anomaly
272.0603°
Rev number
44,372

§ Raw data

IRIDIUM 1441 43249U 18030A   26262.97624235  .00000001  00000+0 -66280-5 0  99982 43249  86.3913 250.7473 0002057  88.0829 272.0603 14.34217573443728

JSON: /api/v1/satellites/43249 · /tle

For live sub-satellite position, see the globe view (requires WebGL).

§ Visibility from observer

Set your observer location to see the next 7 days of passes ≥ 10°. The values pass through the URL so the page stays shareable.

No JS? Fill the form by hand. The geolocation button needs JavaScript.